Regional Weather Roundup
Issued by NWS

Home | Current Version | Previous Version | Graphics & Text | Print | Product List | Glossary On
Versions: 1 2 3 4 5 6 7 8 9 10 11 12 13 14 15 16 17 18 19 20 21 22 23 24 25 26 27 28 29 30 31 32 33 34 35 36 37 38 39 40 41 42 43 44 45 46 47 48 49 50
000
ASUS45 KBOU 011310
RWRCO

WEATHER ROUNDUP FOR COLORADO
NATIONAL WEATHER SERVICE DENVER/BOULDER CO
700 AM MDT WED JUL 01 2015

NOTE: "FAIR" INDICATES FEW OR NO CLOUDS BELOW 12000 FEET WITH NO
SIGNIFICANT WEATHER AND/OR OBSTRUCTIONS TO VISIBILITY.

COZ001>005-013-030-031-011400-
...NORTHWEST COLORADO...

CITY           SKY/WX    TMP DP  RH WIND       PRES   REMARKS
CRAIG          SUNNY     54  48  80 W6        30.26R
HAYDEN         SUNNY     59  46  63 E12       30.26R
MEEKER         MOSUNNY   58  46  64 CALM      30.26R
MOUNT WERNER   NOT AVBL
STEAMBOAT SPGS SUNNY     52  48  84 CALM      30.29S
WALDEN         MOSUNNY   50  46  87 CALM      30.39R
$$

COZ006>008-011-011400-
...WEST CENTRAL VALLEYS...

CITY           SKY/WX    TMP DP  RH WIND       PRES   REMARKS
GRAND JUNCTION PTSUNNY   70  47  43 SE7       30.10R
MONTROSE       PTSUNNY   64  47  53 E7        30.21R
EAGLE          MOSUNNY   55  48  76 CALM      30.32R
RIFLE          PTSUNNY   64  49  57 CALM      30.19R
DELTA          PTSUNNY   66  50  55 NE5       30.16R
NUCLA          PTSUNNY   64  45  48 SE9       30.23R
$$

COZ017>023-064>068-011400-
...SOUTHWEST COLORADO...

CITY           SKY/WX    TMP DP  RH WIND       PRES   REMARKS
DURANGO        CLOUDY    64  52  64 NE6       30.27R
CORTEZ         SUNNY     71  48  43 CALM      30.19R
PAGOSA SPRINGS CLOUDY    57  54  90 CALM      30.36S
TELLURIDE      MOSUNNY   62  41  45 CALM      30.47R
WOLF CREEK PAS NOT AVBL
$$

COZ009-010-012-014-032>034-037-058>063-011400-
...CENTRAL COLORADO...

CITY           SKY/WX    TMP DP  RH WIND       PRES   REMARKS
ASPEN          PTSUNNY   56  45  66 CALM      30.35R
BUENA VISTA    MOSUNNY   56  46  69 W6        30.40R
COPPER MTN     PTSUNNY   55  36  47 W12       30.68R
BERTHOUD PASS  FAIR      45  36  70 NW17G28   30.71S
COTTONWOOD PAS NOT AVBL
GUNNISON       PTSUNNY   55  45  67 CALM      30.40R
KREMMLING      PTSUNNY   54  45  71 CALM      30.38R
LEADVILLE      MOSUNNY   49  40  71 CALM      30.51R
MONARCH PASS   PTSUNNY   50  37  62 SW16      30.77R
SALIDA         MOSUNNY   62  51  67 CALM      30.41R
SUNLIGHT       PTSUNNY   61  37  41 CALM      30.60R
WILKERSON PASS MOSUNNY   54  37  54 NW6       30.64R
$$

COZ069>075-011400-
...SAN LUIS VALLEY/SANGRE DE CRISTO MOUNTAINS...

CITY           SKY/WX    TMP DP  RH WIND       PRES   REMARKS
ALAMOSA        CLOUDY    58  50  75 SE3       30.34R
LA VETA PASS   CLOUDY    54  43  66 MISG      30.50S
SAGUACHE       PTSUNNY   55  48  76 NW7       30.40S
$$

COZ035-036-038>040-011400-
...NORTHERN COLORADO FRONT RANGE...

CITY           SKY/WX    TMP DP  RH WIND       PRES   REMARKS
DENVER INTL AP PTSUNNY   68  55  63 NW6       30.14R
DMNS CITY PARK   N/A     68  55  64 SE1G9     30.14R
AURORA         PTSUNNY   64  55  74 W6        30.17R
FRONT RANGE AP PTSUNNY   68  57  68 CALM      30.16R
ERIE MUNI ARPT PTSUNNY   65  58  78 CALM      30.13S
BOULDER MUN AP PTSUNNY   68  55  64 CALM      30.14R
CENTENNIAL     PTSUNNY   64  56  75 CALM      30.17R
BROOMFIELD     PTSUNNY   68  54  60 NW9       30.17R
FORT COLLINS   PTSUNNY   68  57  68 CALM      30.14R
LONGMONT       PTSUNNY   69  57  65 CALM      30.14R
$$

COZ041-046-047-076>085-087-088-011400-
...PIKES PEAK/PALMER DIVIDE AND SOUTHERN FOOTHILLS...

CITY           SKY/WX    TMP DP  RH WIND       PRES   REMARKS
COLO. SPRINGS  PTSUNNY   65  52  62 N7        30.19R
A. F. ACADEMY  MOSUNNY   63  49  59 N8        30.21R
ELLICOTT       PTSUNNY  N/A N/A N/A CALM      30.17R
FALCON         MOSUNNY   69  47  45 W6        30.24S
FORT CARSON    MOSUNNY   65  51  62 NW3       30.15R
LIMON          PTSUNNY   65  56  72 NW5       30.14R
MONUMENT HILL  PTSUNNY   61  50  67 W7        30.26R
TRINIDAD       PTSUNNY   70  51  51 W5        30.16S
$$

COZ042>045-048>051-090-091-011400-
...NORTHEAST COLORADO...

CITY           SKY/WX    TMP DP  RH WIND       PRES   REMARKS
GREELEY ARPT   MOSUNNY   66  57  72 NW3       30.12R
AKRON          MOSUNNY   69  58  67 NW9       30.08R
BURLINGTON     MOSUNNY   72  55  55 NW13      30.03R
WRAY           MOSUNNY   73  56  55 NW7       29.99R
STERLING       MOSUNNY   68  59  73 CALM        N/A
HOLYOKE        MOSUNNY   73  59  60 NW7       30.00R
FORT MORGAN    MOSUNNY   70  57  63 NW7       30.08R
$$

COZ086-089-092>099-011400-
...SOUTHEAST COLORADO...

CITY           SKY/WX    TMP DP  RH WIND       PRES   REMARKS
PUEBLO         MOSUNNY   70  54  56 NE5       30.08R
LA JUNTA       MOSUNNY   73  57  57 W7        30.05R
LAMAR          MOSUNNY   71  57  61 W5        29.99R
SPRINGFIELD      N/A     72  51  47 NW10      30.02S
$$



USA.gov is the U.S. government's official web portal to all federal, state and local government web resources and services.